Mount Marion, NY (12456)

11:50 AM EDT on September 04, 2015 (GMT -0400)
Saugerties | | Change Station
CLOSE
Current Station
Personal Weather Station
Location: Saugerties, NY
Elevation: 136 ft
Nearby Weather Stations

Elev 136 ft 42.04 °N, 73.95 °W | Updated 7 minutes ago

Overcast
Overcast
74.8 °F
Feels Like 76 °F
N
2.0
Wind Variable Wind from East
Gusts 8.0 mph

Today
High -- | Low -- °F
--% Chance of Precip.
Yesterday
High -- | Low -- °F
Precip. -- in
6:24 AM 7:25 PM
Waning Gibbous, 58% visible
Pressure 30.09 in
Visibility 10.0 miles
Clouds Overcast 2800 ft
Heat Index 76 °F
Dew Point 67 °F
Humidity 76%
Rainfall 0.00 in
Snow Depth Not available.
UV 2 out of 12
Pollen 8.80 out of 12
Air Quality Not available.
Flu Activity Not available.
METAR KPOU 041453Z 35005KT 10SM OVC028 25/17 A3010 RMK AO2 SLP187 T02500172 51013
Pressure 30.09 in
Visibility 10.0 miles
Clouds Overcast 2800 ft
Heat Index 76 °F
Dew Point 67 °F
Humidity 76%
Rainfall 0.00 in
Snow Depth Not available.
UV 2 out of 12
Pollen 8.80 out of 12
Air Quality Not available.
Flu Activity Not available.
METAR KPOU 041453Z 35005KT 10SM OVC028 25/17 A3010 RMK AO2 SLP187 T02500172 51013

10-Day Weather Forecast

×

Almanac

Astronomy

Sep. 04, 2015 Rise Set
Actual Time
Civil Twilight
Nautical Twilight
Astronomical Twilight
Moon
Length of Visible Light
Length of Day
Tomorrow will be .
, % of the Moon is Illuminated

Today's Extremes

State Highs State Lows

Community

WunderPhotos

Upload Photos

1,852,197 photos uploaded!

WunderBlogs® & News

Nearby

Air Quality

  Air Quality AQ Index Pollutant
Not available.

Snow Depth

Station Depth Elevation

Earthquake Activity

City Distance Mag. Time & Date
Minimum magnitude displayed is 2.5.

Coastal Water Temperatures

Place Temperature

Stations

Nearby Weather Stations

Station Location Temp. Windchill Dew Point Humidity Wind Precip. Elev Updated Type